Lexington Weather

Lexington, Massachusetts, USA

33°F
12/8/2019 4:11pm 
  • Lexington Conditions: Mostly cloudy
  • Temperature: 32.5°F / 0.3°CColder 1.1°F than last hour.
  • Dew Point: 17.2°FIncreased 1.6°Fsince last hour.
  • Relative Humidity: 53%Increased 6.0% since last hour.
  • Wind: Wind from SW SW 3 mph, 10-min avg: 2 mph, gust: 8 mph
  • Barometer: 30.40 in Steady
  • Visibility: 10 miles
  • Snow Today: 0.0 in
  •   

Regional Weather Roundup
for Boston / Norton, MA

        
000
ASUS41 KBOX 060710
RWRBOX

REGIONAL WEATHER ROUNDUP
NATIONAL WEATHER SERVICE BOSTON/NORTON MA
200 AM EST FRI DEC 06 2019

NOTE:  "FAIR" INDICATES FEW OR NO CLOUDS BELOW 12,000 FEET WITH NO 
SIGNIFICANT WEATHER AND/OR OBSTRUCTIONS TO VISIBILITY.

MAZALL-060800-
EASTERN MASSACHUSETTS
  
CITY           SKY/WX    TMP DP  RH WIND       PRES   REMARKS
BOSTON         FAIR      31  14  49 W12       30.01R WCI  22          
BEVERLY        FAIR      28  14  55 W9        29.98R WCI  19          
LAWRENCE       FAIR      27  14  58 W9        30.01R WCI  18          
BEDFORD        FAIR      27  12  53 W5        30.00R WCI  22          
BLUE HILL        N/A     23  16  74 W13       29.97R WCI  11          
NORWOOD        FAIR      29  14  53 W5        30.02R WCI  24          
MARSHFIELD     FAIR      30  16  55 VRB7G13   30.02R WCI  23          
PLYMOUTH       FAIR      28  17  63 W7        30.02R WCI  21          
TAUNTON        FAIR      30  15  53 W6        30.03R WCI  24          
NEW BEDFORD    FAIR      31  16  54 W13       30.03R WCI  21          
$$

MAZALL-060800-
CAPE COD AND THE ISLANDS
  
CITY           SKY/WX    TMP DP  RH WIND       PRES   REMARKS
FALMOUTH       CLEAR     28  16  59 NW15G23   30.01R WCI  17          
HYANNIS        FAIR      31  16  54 NW7       30.00R WCI  24          
CHATHAM        FAIR      32  18  56 W8        30.00R WCI  25          
PROVINCETOWN   FAIR      32  19  58 W23G31    30.00R WCI  19          
NANTUCKET      FAIR      33  19  56 NW13G24   30.02R WCI  24          
MARTHAS VNYRD  FAIR      32  17  54 NW12G18   30.03R WCI  23          
$$
 
MAZALL-060800-
CENTRAL AND WESTERN MASSACHUSETTS
  
CITY           SKY/WX    TMP DP  RH WIND       PRES   REMARKS
WORCESTER      FAIR      23  13  65 SW7       29.97R WCI  15          
FITCHBURG      FAIR      22  12  65 NW6       30.01R WCI  14          
ORANGE         FAIR      22  11  62 S8        30.01R WCI  12          
SPRINGFIELD    FAIR      26  15  61 W9        30.04R WCI  17          
WESTFIELD      MOCLDY    29  16  58 W8        30.05R WCI  21          
NORTH ADAMS    CLOUDY    27  14  58 W13       30.03R WCI  16          
PITTSFIELD     CLOUDY    26  16  65 NW8G18    29.99R WCI  18          
$$
 
RIZALL-060800-
RHODE ISLAND
  
CITY           SKY/WX    TMP DP  RH WIND       PRES   REMARKS
PROVIDENCE     FAIR      30  16  56 W9        30.05R WCI  22          
NEWPORT        FAIR      32  18  56 W10G20    30.04R WCI  24          
BLOCK ISLAND   FAIR      33  20  58 NW14G20   30.07R WCI  23          
SMITHFIELD     FAIR      26  16  65 W8        30.02R WCI  18          
WESTERLY       FAIR      34  17  50 W6        30.07R WCI  29          
$$
 
CTZALL-060800-
CONNECTICUT
  
CITY           SKY/WX    TMP DP  RH WIND       PRES   REMARKS
BRADLEY INTL   FAIR      29  16  58 W6        30.06R WCI  23          
HARTFORD       FAIR      31  18  58 W5        30.08R WCI  26          
BRIDGEPORT     FAIR      33  20  58 W7        30.09R WCI  27          
DANBURY        FAIR      31  17  56 W8        30.08R WCI  23          
GROTON         FAIR      32  19  58 W8        30.08R WCI  25          
NEW HAVEN      FAIR      37  22  54 W7        30.09R WCI  32          
CHESTER        FAIR      30  21  69 VRB3      30.06R                  
MERIDEN        FAIR      24  21  88 CALM      30.08R                  
WILLIMANTIC    FAIR      29  17  61 W6        30.07R WCI  23          
OXFORD         FAIR      29  20  69 W6        30.05R WCI  23          
$$

MEZ002-015-021-024-NHZ003-005-008-011-012-014-VTZ005-008-060800-
NORTHERN NEW ENGLAND
  
CITY           SKY/WX    TMP DP  RH WIND       PRES   REMARKS
PORTLAND ME    FAIR      29  12  49 NW9       29.92R WCI  20          
BANGOR ME      CLOUDY    28  18  66 W3        29.83R                  
CONCORD NH     CLOUDY    27  14  58 NW10      29.97R WCI  17          
MANCHESTER NH  FAIR      27  14  58 W7        29.97R WCI  19          
NASHUA NH      FAIR      25  16  68 VRB3      30.01R                  
PORTSMOUTH NH  PTCLDY    28  12  52 W8        29.94R WCI  20          
JAFFREY NH     FAIR      24  12  60 W6        29.95R WCI  17          
KEENE NH       FAIR      22  15  75 SW3       30.00R                  
BURLINGTON VT  CLOUDY    27  14  58 W8        30.01R WCI  19          
MT. WASHINGTON BLWGSNOW   0   0 100 NW54        N/A  VSB 1/16WCI -33  
$$

NYZ052-076-060800-
EASTERN NEW YORK
  
CITY           SKY/WX    TMP DP  RH WIND       PRES   REMARKS
ALBANY         CLOUDY    30  18  60 NW5       30.08R WCI  25          
NEW YORK CITY  FAIR      37  19  48 NW15G24   30.13R WCI  28          
$$
 
ANZALL-060800-
MARINE OBSERVATIONS
  
STATION/POSITION TIME  TEMP    WIND        PRES    VSBY  WAVE
                       AIR SEA DIR/SP/G                  HT/PER
                 (UTC) (F)     (DEG/KT/KT) (MB)    (MI)  (FT/S)
BOSTON BUOY      0650   33 48  300/ 21/ 27 1014.8R         4/ 4
BUZZARDS BAY     0600   34     300/ 27/ 30 1016.5R
NANTUCKET SOUND  0620                      1015.8
MASS BAY-STELLWA 0604   33 46  310/ 21/ 27 1012.8R  1 7/8  3/ 4
ISLE OF SHOALS   0600   31     290/ 18/ 21 1012.7R
S OF BLOCK IS    0700      50                N/A           8/ 7
$$

......................KEY.........................
  SKY/WX - SKY CONDITION/PRESENT WEATHER
  TMP    - TEMPERATURE IN FAHRENHEIT
  DWPT   - DEWPOINT IN FAHRENHEIT
  RH     - RELATIVE HUMIDITY IN PERCENT
  WIND   - DIRECTION AND SPEED IN MPH
  PRES   - MEAN SEA LEVEL PRESSURE IN INCHES OF HG
  WCI    - WIND CHILL INDEX
  VSB    - VISIBILITY IN MILES
  HX     - HEAT INDEX
  TC     - TEMPERATURE IN CELSIUS
  VRB    - VARIABLE WIND DIRECTION
  N/A    - NOT AVAILABLE
  
      

Other recent Regional Weather Roundups

Sun Dec 8, 4:01pm

Sun Dec 8, 3:10pm

Sun Dec 8, 3:01pm

Sun Dec 8, 2:10pm

Sun Dec 8, 2:01pm

Sun Dec 8, 1:10pm

Sun Dec 8, 1:00pm

Sun Dec 8, 12:10pm

Sun Dec 8, 12:01pm

Sun Dec 8, 11:10am

Sun Dec 8, 11:00am

Sun Dec 8, 10:10am

Sun Dec 8, 10:01am

Sun Dec 8, 9:10am

Sun Dec 8, 9:00am

Sun Dec 8, 8:10am

Sun Dec 8, 8:00am

Sun Dec 8, 7:10am

Sun Dec 8, 7:00am

Sun Dec 8, 6:10am

Sun Dec 8, 6:00am

Sun Dec 8, 5:10am

Sun Dec 8, 5:00am

Sun Dec 8, 4:10am

Sun Dec 8, 4:00am

Sun Dec 8, 3:10am

Sun Dec 8, 3:00am

Sun Dec 8, 2:10am

Sun Dec 8, 2:00am

Sun Dec 8, 1:10am

Sun Dec 8, 1:00am

Sun Dec 8, 12:10am

Sun Dec 8, 12:01am

Sat Dec 7, 11:10pm

Sat Dec 7, 11:00pm

Sat Dec 7, 10:10pm

Sat Dec 7, 10:00pm

Sat Dec 7, 9:10pm

Sat Dec 7, 9:00pm

Sat Dec 7, 8:10pm

Sat Dec 7, 8:00pm

Sat Dec 7, 7:10pm

Sat Dec 7, 7:00pm

Sat Dec 7, 6:10pm

Sat Dec 7, 6:00pm

Sat Dec 7, 5:10pm

Sat Dec 7, 5:00pm

Sat Dec 7, 4:10pm

Sat Dec 7, 4:00pm

Sat Dec 7, 3:10pm

Sat Dec 7, 3:00pm

Sat Dec 7, 2:10pm

Sat Dec 7, 2:01pm

Sat Dec 7, 1:10pm

Sat Dec 7, 1:00pm

Sat Dec 7, 12:10pm

Sat Dec 7, 12:01pm

Sat Dec 7, 11:10am

Sat Dec 7, 11:00am

Sat Dec 7, 10:10am

Sat Dec 7, 10:01am

Sat Dec 7, 9:10am

Sat Dec 7, 9:00am

Sat Dec 7, 8:10am

Sat Dec 7, 8:00am

Sat Dec 7, 7:10am

Sat Dec 7, 7:00am

Sat Dec 7, 6:10am

Sat Dec 7, 6:00am

Sat Dec 7, 5:10am

Sat Dec 7, 5:00am

Sat Dec 7, 4:10am

Sat Dec 7, 4:00am

Sat Dec 7, 3:10am

Sat Dec 7, 3:00am

Sat Dec 7, 2:10am

Sat Dec 7, 2:01am

Sat Dec 7, 1:10am

Sat Dec 7, 1:00am

Sat Dec 7, 12:10am

Sat Dec 7, 12:01am

Fri Dec 6, 11:10pm

Fri Dec 6, 11:00pm

Fri Dec 6, 10:10pm

Fri Dec 6, 10:00pm

Fri Dec 6, 9:10pm

Fri Dec 6, 9:00pm

Fri Dec 6, 8:10pm

Fri Dec 6, 8:00pm

Fri Dec 6, 7:10pm

Fri Dec 6, 7:01pm

Fri Dec 6, 6:10pm

Fri Dec 6, 6:00pm

Fri Dec 6, 5:10pm

Fri Dec 6, 5:00pm

Fri Dec 6, 4:10pm

Fri Dec 6, 4:00pm

Fri Dec 6, 3:10pm

Fri Dec 6, 3:00pm

Fri Dec 6, 2:10pm

Fri Dec 6, 2:00pm

Fri Dec 6, 1:10pm

Fri Dec 6, 1:00pm

Fri Dec 6, 12:10pm

Fri Dec 6, 12:00pm

Fri Dec 6, 11:10am

Fri Dec 6, 11:00am

Fri Dec 6, 10:10am

Fri Dec 6, 10:00am

Fri Dec 6, 9:10am

Fri Dec 6, 9:00am

Fri Dec 6, 8:10am

Fri Dec 6, 8:00am

Fri Dec 6, 7:10am

Fri Dec 6, 7:00am

Fri Dec 6, 6:10am

Fri Dec 6, 6:01am

Fri Dec 6, 5:10am

Fri Dec 6, 5:00am

Fri Dec 6, 4:10am

Fri Dec 6, 4:00am

Fri Dec 6, 3:10am

Fri Dec 6, 3:00am

Fri Dec 6, 2:00am

Fri Dec 6, 1:10am

Fri Dec 6, 1:00am

Fri Dec 6, 12:10am

Fri Dec 6, 12:00am

Thu Dec 5, 11:10pm

Thu Dec 5, 11:00pm

Thu Dec 5, 10:10pm

Thu Dec 5, 10:01pm

Thu Dec 5, 9:10pm

Thu Dec 5, 9:01pm

Thu Dec 5, 8:10pm

Thu Dec 5, 8:00pm

Thu Dec 5, 7:10pm

Thu Dec 5, 7:00pm

Thu Dec 5, 6:10pm

Thu Dec 5, 6:00pm

Thu Dec 5, 5:10pm

Thu Dec 5, 5:00pm

Thu Dec 5, 4:10pm

Meta data:

ID: 2ca9bb37-e2da-4a22-a470-8fc30e8b00fb
Link: https://api.weather.gov/products/2ca9bb37-e2da-4a22-a470-8fc30e8b00fb